Theta_e
319 313 311 323 322 322 324 324 325 328 333 334 331 329 331 333 333 331 332 330 329 327 327 325 324 322 320 319 320 320 320 320 319 319 318 318 318 317 315 315 315 316 315 312 311 311 311 310 311
319 312 322 327 322 325 323 324 325 328 335 335 333 334 335 335 335 335 332 330 327 327 326 325 324 323 321 319 321 321 320 320 319 319 319 319 319 318 317 316 316 317 318 318 317 315 314 312 311
318 320 322 322 324 325 325 326 328 334 334 335 334 334 335 336 335 335 335 333 328 327 326 325 325 324 322 320 321 321 320 320 320 319 320 320 320 319 319 318 317 318 319 320 320 321 322 321 322
317 319 322 322 325 326 326 328 330 330 330 335 334 329 335 335 335 335 336 336 332 330 326 325 325 324 322 320 321 321 320 320 320 320 320 320 321 320 320 320 318 317 320 322 323 322 322 324 324
315 323 318 321 323 326 328 328 327 327 333 335 333 331 333 337 336 335 332 331 332 331 328 326 325 324 323 321 320 321 321 320 320 320 320 320 321 321 320 320 319 318 320 324 326 327 328 330 333
322 320 320 321 322 324 326 328 327 332 335 335 334 331 333 335 334 332 332 332 332 332 331 332 328 325 324 322 320 321 321 320 320 320 320 320 321 321 321 321 320 319 321 323 324 325 324 323 322
319 317 320 322 325 326 327 328 328 328 328 330 332 331 332 332 332 332 332 333 332 333 333 333 332 329 325 324 321 320 321 320 319 319 319 320 321 321 321 321 321 320 322 324 325 326 327 327 326
322 316 320 320 323 324 327 329 329 329 328 330 333 331 332 332 332 333 333 333 333 332 332 334 333 333 330 325 323 320 320 320 319 319 319 319 320 321 321 321 321 321 323 325 326 326 327 326 324
322 317 318 320 322 324 326 328 329 329 330 329 330 332 332 332 332 333 334 332 333 333 334 334 334 335 334 331 326 322 319 319 319 318 318 318 319 320 320 320 321 322 323 325 328 328 328 327 326
323 317 318 318 320 322 322 323 327 329 329 329 328 329 331 330 330 332 332 332 332 332 330 332 334 334 334 334 331 325 322 320 319 319 318 318 318 319 320 320 320 322 323 326 329 330 329 327 327
328 329 321 320 320 321 324 324 324 323 324 325 327 327 328 328 329 330 330 331 331 330 330 330 331 332 333 334 334 330 326 323 321 320 319 318 318 319 319 320 321 322 324 324 328 330 329 328 328
329 328 329 328 325 328 327 327 326 324 324 324 325 326 327 328 329 327 327 327 329 329 330 330 329 330 330 332 334 334 330 327 324 321 320 319 318 319 319 320 322 323 325 324 328 330 329 329 328
318 324 328 329 329 330 331 331 330 328 327 327 327 327 327 328 327 327 327 327 327 328 329 329 329 329 330 331 332 333 334 332 327 326 322 320 320 319 319 320 321 323 326 325 328 330 332 331 329
315 318 319 321 324 324 324 324 324 325 326 326 326 327 327 327 327 327 327 327 328 328 328 328 329 329 329 329 329 329 333 335 331 327 328 322 320 320 320 321 322 324 328 327 330 333 333 330 330
314 313 315 316 316 318 322 323 323 324 324 325 325 325 325 326 326 326 326 327 327 327 328 328 329 329 329 329 328 329 331 334 335 333 331 326 322 321 321 322 323 330 329 329 333 333 333 331 330
315 313 314 316 316 317 319 323 323 324 325 324 324 325 326 326 327 327 327 327 327 328 328 328 328 329 329 328 328 329 330 333 334 334 336 333 326 322 323 328 332 333 330 331 333 333 332 329 330
313 317 316 316 317 318 318 322 322 322 323 324 325 325 326 326 326 327 327 327 327 327 328 328 328 329 329 327 328 329 331 333 335 335 337 336 334 336 333 334 336 332 332 332 333 331 330 330 329
316 316 318 317 316 318 318 319 320 322 322 322 322 323 323 323 324 325 326 327 327 327 327 328 329 328 327 327 328 331 332 334 336 337 339 339 337 340 336 336 335 332 333 330 329 328 330 328 327
312 314 316 317 316 318 318 318 319 319 320 320 321 322 322 323 325 326 325 326 327 326 328 329 328 328 327 327 329 332 332 335 337 340 340 339 341 339 337 335 334 333 332 331 331 330 328 326 326
310 311 313 314 315 316 317 318 318 318 319 320 321 321 322 323 324 324 324 327 327 328 328 328 328 328 327 328 330 333 333 337 340 341 341 342 339 338 334 332 333 333 332 330 330 330 327 326 326
310 312 313 314 315 315 314 316 315 316 318 319 320 321 322 323 322 322 324 324 325 326 328 328 328 327 327 328 332 334 337 341 342 342 342 340 337 335 332 333 333 333 331 330 329 327 326 325 325
309 311 313 314 314 315 314 316 315 316 315 316 318 319 320 320 321 322 323 326 326 326 328 327 327 326 328 329 334 336 338 342 342 341 340 337 334 332 333 333 333 332 331 326 326 325 324 324 325
309 310 312 313 313 313 314 314 315 314 315 316 316 318 319 320 321 322 323 325 325 325 326 327 327 329 330 333 339 340 341 342 341 340 338 335 333 333 333 334 333 332 329 325 324 323 323 324 324
309 311 310 311 311 313 314 314 315 315 315 316 316 319 320 321 323 323 322 324 325 326 326 329 331 333 336 339 342 343 343 342 341 339 336 334 332 333 333 334 331 330 326 324 323 323 323 323 323
308 306 309 312 313 315 314 315 315 315 315 315 316 318 320 321 321 322 323 326 329 329 333 335 338 338 340 344 345 344 343 342 341 335 332 333 333 333 332 330 329 326 325 324 323 324 324 324 324
305 305 308 313 315 314 314 315 315 314 315 316 317 317 318 319 320 321 328 332 332 337 338 339 341 341 344 344 343 342 341 338 334 332 333 333 332 331 330 329 324 324 324 324 323 324 325 325 324
310 305 306 306 310 311 313 314 315 316 316 315 315 316 318 320 324 330 334 336 338 338 339 340 342 343 343 342 341 338 334 333 332 333 332 331 329 329 327 324 323 324 325 325 325 325 324 324 325
308 309 307 305 311 313 313 314 316 316 316 316 316 315 320 329 335 336 337 338 338 338 340 342 342 342 340 337 334 333 333 332 332 332 330 329 327 325 324 324 324 325 327 326 326 326 326 326 326
309 310 309 306 308 312 314 315 314 316 316 315 316 318 323 333 337 338 339 338 339 341 342 342 340 338 335 333 333 333 331 330 330 330 330 328 326 324 325 326 327 327 327 326 326 326 326 325 322
309 310 310 309 309 309 312 313 314 313 314 315 323 322 332 336 338 339 339 339 340 341 341 339 337 334 333 332 331 328 327 327 328 327 327 327 326 325 327 327 328 328 327 327 329 328 326 325 324
Wind_Speed
5 2 4 4 3 4 4 7 2 5 3 2 2 8 5 7 6 5 21 21 17 20 25 24 20 19 16 14 13 11 10 9 9 9 8 7 6 4 3 3 2 0 2 3 4 5 6 6 6
5 5 5 3 4 2 5 5 9 4 6 4 13 12 4 3 5 12 24 22 17 20 21 21 21 19 18 16 15 14 12 11 11 10 8 6 5 3 2 2 2 1 0 2 3 4 4 5 5
7 8 3 3 4 5 5 5 4 6 16 10 5 6 10 6 9 25 25 22 13 12 14 21 21 20 20 18 17 17 15 14 13 11 9 6 4 3 2 3 2 1 1 2 3 4 4 5 5
8 5 1 2 7 6 6 3 5 6 22 10 4 6 5 9 18 16 20 17 13 11 18 21 21 23 22 22 21 20 18 17 15 13 10 8 6 3 1 3 4 4 2 3 3 4 5 6 6
11 2 1 3 6 4 4 14 23 13 5 6 4 6 8 11 15 15 13 15 9 15 17 19 22 23 24 24 23 22 22 20 20 17 14 12 9 7 4 0 4 5 5 4 5 5 6 8 9
5 3 0 6 6 1 3 12 17 4 4 8 3 4 2 14 14 11 8 7 8 9 11 15 21 24 26 26 26 25 25 24 23 21 18 16 13 10 6 3 2 4 5 6 6 7 9 10 13
6 4 4 3 4 3 4 5 4 7 10 8 4 6 4 16 10 11 7 10 10 15 18 18 22 23 30 30 29 29 28 26 25 24 22 19 16 13 9 7 4 4 5 5 6 7 9 12 13
6 4 3 5 3 4 7 2 2 12 9 19 6 2 4 6 11 15 13 16 17 16 19 23 24 25 28 34 33 30 30 29 28 27 26 22 19 16 13 10 7 6 5 5 4 5 9 10 12
7 3 5 6 6 4 8 8 18 14 18 23 11 4 8 6 15 20 21 20 22 23 24 26 28 28 32 33 36 34 33 32 31 30 29 26 25 21 17 12 10 7 6 6 7 6 7 7 7
6 5 10 8 7 2 8 7 21 18 21 25 28 16 7 11 12 27 27 25 28 26 24 26 30 29 32 36 37 39 37 36 35 35 34 32 29 24 19 15 12 10 9 9 8 8 9 8 8
8 10 14 13 18 11 9 10 19 16 16 25 18 21 25 25 20 15 18 23 25 25 23 22 26 30 32 35 38 41 41 40 39 39 39 37 32 28 25 20 16 13 12 12 11 11 11 10 9
6 13 22 15 16 10 12 15 17 25 31 34 30 32 30 33 28 16 21 21 25 26 26 25 24 27 28 33 37 41 42 44 43 42 42 40 37 33 28 23 18 15 15 15 13 12 12 12 11
12 10 15 20 23 22 22 25 25 28 30 35 37 35 35 30 28 32 30 30 27 27 28 28 30 30 28 32 35 35 39 45 47 44 45 43 41 36 30 25 21 18 18 17 14 15 15 15 14
1 15 19 23 26 22 15 23 24 33 34 29 34 32 31 35 34 34 33 32 29 26 33 36 35 34 32 29 28 26 34 43 49 48 45 44 41 36 31 28 24 20 20 17 16 16 17 17 17
12 8 10 14 5 7 9 21 25 32 33 34 32 30 36 37 38 40 39 38 39 41 41 39 30 36 37 32 28 25 29 39 41 46 46 42 40 34 31 29 24 20 18 18 18 18 18 19 19
3 4 13 16 13 8 8 30 8 11 23 32 34 33 33 36 38 40 39 41 42 42 42 38 34 29 32 31 25 25 29 34 40 39 43 36 33 28 31 26 22 17 16 18 19 18 19 19 21
5 9 13 10 6 8 14 37 13 28 26 29 33 35 42 45 45 42 44 48 48 41 37 38 35 26 28 27 27 30 32 35 40 37 34 28 25 26 27 23 19 15 16 18 18 18 20 20 22
10 15 3 3 4 10 14 31 17 18 22 25 27 34 37 39 44 47 44 43 42 40 39 35 31 26 28 27 31 35 36 36 37 32 27 24 25 26 24 19 18 17 15 14 16 19 21 21 20
5 6 2 4 7 13 18 27 21 16 24 26 34 37 40 47 45 45 48 45 41 38 36 27 30 31 32 29 34 38 37 34 31 26 22 22 22 20 18 17 18 16 14 14 17 19 19 20 18
11 10 8 6 11 5 10 21 16 12 16 26 27 29 34 36 44 34 32 29 25 25 27 27 29 30 31 31 34 37 34 32 25 21 21 21 18 19 17 16 18 14 14 16 18 19 19 19 17
5 9 9 6 9 16 9 20 12 10 17 29 35 37 38 34 35 39 34 35 34 30 31 31 27 24 27 29 35 34 26 22 23 24 25 24 17 17 19 18 16 14 16 18 18 18 17 14 12
15 4 7 5 5 9 6 15 20 20 20 13 22 29 32 37 42 35 37 33 30 29 32 29 27 25 25 28 29 27 27 26 27 24 21 15 15 16 18 17 15 17 16 17 15 13 13 13 12
6 11 9 10 8 4 4 4 28 8 14 20 20 29 42 46 41 39 38 35 32 26 25 31 28 24 21 21 20 22 24 24 22 19 15 12 15 15 17 17 15 16 17 13 11 11 11 11 12
4 7 9 6 3 6 12 9 27 10 15 9 9 23 32 31 27 26 31 33 36 28 21 25 24 19 15 14 15 16 22 24 21 19 14 14 16 17 17 15 17 15 12 9 9 9 9 9 11
4 4 2 2 4 13 12 13 23 5 4 6 7 18 26 29 30 27 29 29 17 15 20 20 19 17 15 15 16 18 20 20 19 16 15 16 16 16 16 14 13 10 9 8 7 6 7 7 6
6 9 4 6 7 6 13 13 9 10 14 24 25 29 28 30 31 31 22 12 13 19 21 20 19 19 19 20 20 20 19 18 16 14 14 15 14 12 11 10 8 8 8 8 8 7 7 6 6
2 4 8 4 4 2 5 8 10 11 19 8 13 16 28 26 22 16 12 17 22 21 20 20 20 22 22 21 20 20 19 16 14 15 14 12 10 9 9 6 5 5 5 5 6 8 9 8 6
6 3 3 1 4 5 6 7 11 2 13 5 8 9 18 15 15 16 19 23 22 21 22 22 21 25 23 22 20 17 15 13 13 13 12 10 7 6 7 6 5 3 3 5 8 9 8 8 8
2 3 3 4 5 4 3 7 6 13 5 9 14 19 17 20 21 23 25 24 23 24 24 24 26 26 24 21 18 16 13 12 11 9 9 9 7 9 10 7 5 0 2 5 6 6 5 9 10
4 3 2 3 9 4 3 7 11 3 7 8 17 13 20 25 27 28 27 27 26 27 27 27 27 26 22 18 15 14 11 8 8 7 7 9 11 12 9 4 0 3 6 6 6 7 13 11 12
Wind_Direction
213 175 157 144 50 62 274 260 263 267 184 198 160 143 179 161 167 211 156 169 177 179 181 182 191 191 190 188 189 188 177 168 163 161 151 139 129 119 118 104 92 125 243 245 242 241 249 252 249
192 160 163 131 113 133 257 242 242 261 284 216 126 127 103 238 185 156 160 166 181 185 183 187 194 195 197 198 199 201 194 189 184 177 169 158 145 125 88 64 53 73 204 235 234 246 250 261 270
173 172 199 156 172 186 231 224 227 298 307 293 132 142 146 181 183 157 169 172 160 175 199 199 200 202 203 206 207 207 204 204 201 192 187 182 165 128 57 22 1 339 284 239 237 244 247 264 275
173 193 198 161 223 244 228 303 311 290 304 270 158 103 129 146 159 162 169 170 178 197 202 206 207 208 208 212 211 211 211 212 212 211 202 199 189 174 126 9 343 328 300 264 252 258 257 254 262
173 155 215 247 242 228 253 281 292 278 259 249 13 145 157 183 167 164 158 172 188 205 204 214 217 216 216 218 218 218 218 218 218 218 212 208 205 201 196 226 339 329 309 285 275 274 268 271 271
146 132 158 238 243 190 243 263 277 229 308 295 183 78 73 180 179 173 177 186 199 224 217 230 226 223 223 224 224 225 225 223 222 221 219 214 212 211 211 223 303 319 308 298 297 294 286 277 270
155 125 225 248 269 2 245 253 256 19 305 353 105 117 140 176 180 185 201 214 230 230 234 237 224 228 226 228 226 228 230 228 228 228 226 221 220 221 222 231 256 292 301 302 302 303 299 288 273
199 120 251 236 204 282 286 204 20 27 355 2 80 160 158 196 218 205 218 227 229 237 243 240 233 233 234 232 229 229 233 233 232 233 231 228 228 230 230 234 251 274 282 288 283 305 318 303 288
202 115 224 238 156 230 335 0 281 291 299 310 344 206 179 246 232 225 219 231 234 238 246 240 242 242 238 238 235 230 233 233 236 237 235 233 231 233 234 238 251 269 273 270 273 301 315 318 308
177 179 221 203 193 184 325 324 302 323 313 285 289 301 225 303 278 231 231 236 237 239 243 238 240 241 243 242 238 233 234 234 236 237 236 235 234 236 239 241 248 260 262 264 275 282 289 296 305
204 216 227 244 225 225 259 281 271 284 274 248 264 284 288 302 295 248 240 250 243 253 252 251 238 239 243 244 242 238 235 237 237 240 239 239 237 236 237 239 246 256 257 265 272 273 280 277 286
243 216 225 253 246 244 242 266 253 240 257 272 280 283 286 294 287 274 297 290 262 267 279 274 260 245 243 240 242 242 240 238 238 240 241 240 237 235 238 240 247 256 254 260 263 269 280 273 272
240 237 235 250 263 257 267 259 261 260 258 271 277 279 282 280 279 288 297 295 288 283 277 277 271 261 256 241 240 243 246 244 241 242 243 242 241 237 239 242 248 256 253 256 259 264 279 281 263
217 227 248 250 254 261 255 264 268 265 268 266 272 271 272 279 283 286 289 293 287 288 294 289 275 263 260 250 241 246 246 246 243 242 245 245 243 241 242 246 248 251 253 260 260 263 273 283 269
262 290 284 242 220 245 274 268 252 261 272 273 272 272 277 279 281 283 290 292 290 289 289 281 278 268 261 245 240 243 245 248 249 248 246 246 246 242 246 244 247 244 253 260 258 259 269 280 276
232 187 247 259 232 226 185 258 238 275 252 262 271 277 277 278 283 288 289 288 287 287 291 281 276 265 256 240 244 245 247 247 246 250 245 246 246 242 239 236 230 240 255 262 261 263 272 278 272
237 238 231 263 194 204 193 258 257 260 263 263 265 269 272 274 277 279 281 284 287 285 285 282 269 261 255 241 241 244 245 244 244 251 241 238 231 227 230 216 228 241 258 262 262 269 279 275 271
216 227 261 205 212 218 233 256 254 243 258 264 268 269 273 279 279 281 282 284 284 287 289 282 256 255 238 243 241 241 242 243 244 248 234 233 230 224 214 214 226 243 255 266 268 279 281 279 276
340 307 326 336 215 215 230 254 256 254 255 257 261 264 265 266 277 280 286 285 286 280 280 262 245 245 235 237 237 238 239 238 242 231 225 223 224 241 209 219 230 242 267 281 275 276 277 277 275
259 275 279 277 270 259 276 270 278 260 254 256 254 251 257 269 278 285 290 288 277 284 268 256 241 239 240 242 239 237 239 235 233 219 215 216 237 213 218 227 232 258 271 279 280 279 281 276 273
244 232 250 248 307 299 303 288 274 252 252 253 256 258 260 264 275 283 285 282 281 277 257 243 238 241 245 242 236 235 235 226 207 202 205 206 210 217 218 225 237 258 272 282 280 277 276 269 260
254 249 257 254 222 258 4 290 276 266 257 241 250 255 261 268 272 276 282 277 283 285 251 242 243 245 239 238 235 235 227 201 196 198 206 205 183 197 208 222 241 259 274 280 274 265 263 253 246
257 231 233 224 252 258 248 291 273 212 252 246 246 249 259 268 272 269 270 283 287 282 254 248 242 227 231 235 227 222 219 203 187 186 194 184 189 205 212 225 249 266 275 273 257 257 253 250 242
225 213 220 220 197 253 223 208 273 240 243 244 230 242 256 261 265 276 287 281 282 274 249 220 212 205 206 206 207 209 204 196 188 187 189 194 199 207 217 239 257 268 261 260 256 251 248 245 241
174 93 181 172 187 234 188 208 247 274 254 246 261 261 268 270 277 283 286 281 265 217 195 192 188 178 177 180 173 181 191 197 197 188 189 203 209 219 232 254 268 260 245 253 253 245 245 238 237
184 165 185 179 185 230 233 233 249 231 239 258 262 266 271 271 271 275 269 244 186 174 175 173 170 162 159 165 170 176 182 184 182 189 200 207 208 229 249 264 257 229 243 250 248 242 238 235 235
318 171 209 3 216 213 243 281 287 269 268 258 260 271 266 258 248 236 212 177 169 167 164 165 159 153 158 164 169 172 171 176 182 183 189 200 226 244 259 222 205 221 236 249 248 241 240 238 239
167 223 124 80 226 237 260 256 235 255 258 324 283 243 254 216 199 188 173 164 160 161 159 158 156 154 159 163 166 165 163 167 178 189 202 213 227 231 179 172 182 193 260 273 260 250 237 235 239
163 240 222 187 210 213 282 254 211 211 294 293 303 288 230 190 177 165 162 157 159 159 157 156 157 158 161 166 166 165 164 164 174 188 211 216 190 165 159 150 147 77 321 295 282 272 243 232 218
317 207 156 185 228 238 238 263 283 327 312 327 311 299 181 176 164 162 158 158 160 159 159 159 160 161 162 162 164 165 164 142 175 180 185 184 166 160 154 147 208 309 323 307 291 263 248 224 218